DLH273 EDDF-LPMA

Flight info

Callsign DLH273
Flight time N/A
Altitude 35000
Route SOBRA2L/18 SOBRA Y180 DIK UN857 TOLVU DCT RAPOR DCT GIMER DCT ESTOC UT300 PON UN872 GODIX/N0441F310 UN872 DIDAK/N0450F370 UN872 ERIGA UN741 AZFIC DCT LOTEE DCT AGADO DCT LIDRO
Aircraft A319/M-SDE3FGHIRWY/LB1

Departure

Time 2026-05-07 13:52
Airport Frankfurt Main Airport (EDDF)

Arrival

Time N/A
Airport Cristiano Ronaldo International Airport (LPMA)
Time Latitude Longitude Altitude Speed Heading
2026-05-07 13:11 50.03103 8.57223 361 ft 0 kts 25°
2026-05-07 13:37 50.03090 8.57213 363 ft 4 kts 25°
2026-05-07 13:37 50.03065 8.57196 358 ft 4 kts 24°
2026-05-07 13:38 50.03044 8.57180 361 ft 2 kts 25°
2026-05-07 13:38 50.03020 8.57171 353 ft 4 kts 343°
2026-05-07 13:38 50.02998 8.57193 362 ft 4 kts 303°
2026-05-07 13:38 50.02998 8.57191 362 ft 4 kts 295°
2026-05-07 13:39 50.03009 8.57154 360 ft 3 kts 295°
2026-05-07 13:39 50.03010 8.57148 358 ft 0 kts 295°
2026-05-07 13:42 50.03016 8.57130 354 ft 5 kts 295°
2026-05-07 13:42 50.03043 8.57040 354 ft 13 kts 295°
2026-05-07 13:42 50.03112 8.56924 353 ft 16 kts 339°
2026-05-07 13:43 50.03215 8.56865 354 ft 16 kts 340°
2026-05-07 13:43 50.03265 8.56733 349 ft 17 kts 248°
2026-05-07 13:43 50.03219 8.56553 348 ft 18 kts 250°
2026-05-07 13:43 50.03176 8.56373 348 ft 18 kts 249°
2026-05-07 13:44 50.03133 8.56190 348 ft 19 kts 250°
2026-05-07 13:44 50.03086 8.55994 348 ft 20 kts 249°
2026-05-07 13:44 50.03038 8.55794 348 ft 20 kts 250°
2026-05-07 13:44 50.02990 8.55597 346 ft 19 kts 249°
2026-05-07 13:45 50.02943 8.55399 352 ft 19 kts 249°
2026-05-07 13:45 50.02896 8.55204 350 ft 19 kts 249°
2026-05-07 13:45 50.02840 8.54967 346 ft 27 kts 250°
2026-05-07 13:45 50.02772 8.54689 341 ft 27 kts 250°
2026-05-07 13:46 50.02710 8.54415 337 ft 27 kts 251°
2026-05-07 13:46 50.02653 8.54140 336 ft 27 kts 250°
2026-05-07 13:46 50.02588 8.53868 334 ft 27 kts 250°
2026-05-07 13:46 50.02524 8.53599 333 ft 26 kts 250°
2026-05-07 13:47 50.02462 8.53343 335 ft 25 kts 249°
2026-05-07 13:47 50.02401 8.53090 335 ft 25 kts 249°
2026-05-07 13:47 50.02346 8.52859 334 ft 19 kts 248°
2026-05-07 13:47 50.02322 8.52764 331 ft 0 kts 249°
2026-05-07 13:50 50.02322 8.52763 331 ft 1 kts 250°
2026-05-07 13:50 50.02307 8.52698 334 ft 12 kts 250°
2026-05-07 13:50 50.02256 8.52603 335 ft 12 kts 182°
2026-05-07 13:50 50.02248 8.52604 335 ft 0 kts 177°
2026-05-07 13:51 50.02199 8.52608 333 ft 31 kts 178°
2026-05-07 13:51 50.01731 8.52610 334 ft 100 kts 179°
2026-05-07 13:52 50.00837 8.52621 339 ft 153 kts 180°
2026-05-07 13:52 49.99769 8.52654 861 ft 154 kts 180°
2026-05-07 13:52 49.98684 8.52718 1427 ft 158 kts 179°
2026-05-07 13:52 49.97534 8.52796 1791 ft 176 kts 178°
2026-05-07 13:53 49.96257 8.52887 2193 ft 191 kts 178°
2026-05-07 13:53 49.94874 8.52978 2589 ft 209 kts 178°
2026-05-07 13:53 49.93347 8.53070 2909 ft 234 kts 179°
2026-05-07 13:53 49.91699 8.53179 3646 ft 239 kts 178°
2026-05-07 13:54 49.90035 8.53296 3925 ft 238 kts 178°
2026-05-07 13:54 49.88940 8.53372 3982 ft 237 kts 179°
2026-05-07 13:54 49.87296 8.53331 3997 ft 235 kts 192°
2026-05-07 13:54 49.85644 8.52524 4007 ft 259 kts 202°
2026-05-07 13:55 49.83928 8.51548 4003 ft 264 kts 201°
2026-05-07 13:55 49.82191 8.50568 4004 ft 265 kts 201°
2026-05-07 13:55 49.80438 8.49583 4288 ft 273 kts 201°
2026-05-07 13:55 49.78671 8.48549 5356 ft 270 kts 207°
2026-05-07 13:56 49.77166 8.46832 6294 ft 270 kts 231°
2026-05-07 13:56 49.76237 8.44380 7150 ft 269 kts 253°
2026-05-07 13:56 49.75987 8.41517 8011 ft 271 kts 275°
2026-05-07 13:56 49.76362 8.38649 8856 ft 274 kts 285°
2026-05-07 13:57 49.76834 8.35763 9716 ft 278 kts 284°
2026-05-07 13:57 49.77316 8.32833 10393 ft 287 kts 284°
2026-05-07 13:57 49.77826 8.29716 10644 ft 311 kts 284°
2026-05-07 13:57 49.78368 8.26377 11041 ft 326 kts 284°
2026-05-07 13:58 49.78923 8.22938 11709 ft 332 kts 284°
2026-05-07 13:58 49.79480 8.19452 12446 ft 336 kts 284°
2026-05-07 13:58 49.80038 8.15951 13164 ft 340 kts 284°
2026-05-07 13:58 49.80605 8.12380 13879 ft 344 kts 284°
2026-05-07 13:59 49.81177 8.08770 14522 ft 347 kts 284°
2026-05-07 13:59 49.81757 8.05113 15172 ft 350 kts 284°
2026-05-07 13:59 49.82341 8.01432 15825 ft 353 kts 284°
2026-05-07 13:59 49.82929 7.97731 16471 ft 356 kts 283°
2026-05-07 14:00 49.83513 7.94032 17104 ft 359 kts 283°
2026-05-07 14:00 49.84105 7.90262 17744 ft 362 kts 283°